Airfield :
LOGIN :

Register | Disclaimer

   EN    FR    IT 

 










Legend :    VFR   Marginal VFR   IFR   Intensive IFR   Very Intensive IFR
Visi :
Ceiling :
>= 8 km
>= 3000ft
5 to 8 km
1000 to 3000 ft
1500m to 5 km
500 to 1000 ft
800 to 1500m
200 to 500 ft
< 800m
< 200 ft
Symbols :   Thunderstorms  Fog  Heavy snow  Heavy precipitations  Wind > 20 kt
SIGMETs :     Misc.  Thunderstorms  Icing  Turbulence  Mountain Waves  Volcanic Ashes






- Airport Elevation : 46 ft
- IATA code : PAF


LPMT - Montijo Air Base

CURRENT METAR :
  • 180200Z 35004KT 310V030 9999 SCT018 BKN025 16/12 Q1013

EXPIRED METARs :
  • 180100Z 32005KT 9999 SCT018 BKN022 16/12 Q1014
  • 180000Z 35008KT 9999 SCT018 BKN022 16/12 Q1014

TAF TAF LPMT
Valid from the 18 at 00:00 until the 19 at 00:00 UTC


172301Z 1800/1824 32010KT 9999 SCT015 SCT030
TEMPO 1800/1824 5000 SHRA BKN014 FEW022CB
BECMG 1810/1812 30015KT
TEMPO 1814/1818 31020G30KT
BECMG 1819/1821 32010KT



MET'MAP, your aeronautical weather chart ! - Copyright ORBIFLY December 2007 - Disclaimer

ORBIFLY MET'MAP TEAM :

Programming & Development : Alexandra Zaïnal
Concept & original design : Baudouin d'Aumeries
Assistance for programming : Marc-Olivier Méhu
Technical & hardware support : Manuel Goepfert

Contact : metmap@orbifly.com




SOURCES & CREDITS :

   NOAA